Weather History for KBAC - August, 2014

Change the Weather History Date:

Wednesday, August 13, 2014

  Actual Average (KJMS) Record (KJMS)
Temperature  
Mean Temperature 70 °F 69 °F  
Max Temperature 82 °F 83 °F 103 °F (1937)
Min Temperature 57 °F 56 °F 31 °F (1924)
Degree Days  
Heating Degree Days 0 1  
Month to date heating degree days 12  
Since 1 June heating degree days 131  
Since 1 July heating degree days 34  
Cooling Degree Days 4 5  
Month to date cooling degree days 74  
Year to date cooling degree days 346  
Since 1 June cooling degree days 326  
Growing Degree Days 20 (Base 50)    
Moisture  
Dew Point 58 °F    
Average Humidity 68    
Maximum Humidity 100    
Minimum Humidity 42    
Precipitation  
Precipitation 0.00 in 0.07 in 0.51 in (1950)
Month to date precipitation 0.83  
Year to date precipitation 12.92  
Sea Level Pressure  
Sea Level Pressure 30.08 in    
Wind  
Wind Speed 5 mph (East)    
Max Wind Speed 10 mph    
Max Gust Speed -    
Visibility 10 miles    
Events Rain    
T = Trace of Precipitation, MM = Missing Value Source: NWS Daily Summary

Daily Weather History Graph

Daily Weather History Graph

Search for Another Location

Airport or City:

Trip Planner

Search our weather history database for the weather conditions in past years. The results will help you decide how hot, cold, wet, or windy it might be!

Date:

Astronomy

Aug. 13, 2014 Rise Set
Actual Time 6:26 AM CDT 8:46 PM CDT
Civil Twilight 5:53 AM CDT 9:19 PM CDT
Nautical Twilight 5:11 AM CDT 10:01 PM CDT
Astronomical Twilight 4:23 AM CDT 10:48 PM CDT
Moon 10:13 PM CDT (8/13) 10:13 AM CDT (8/13)
Length of Visible Light 15h 26m
Length of Day
14h 19m
Waning Gibbous, 87% of the Moon is Illuminated
Aug 13
Waning Gibbous
Aug 17
Last Quarter
Aug 25
New
Sep 2
First Quarter
Sep 8
Full

Hourly Weather History & Observations

Time (CDT) Temp. Heat Index Dew Point Humidity Pressure Visibility Wind Dir Wind Speed Gust Speed Precip Events Conditions
12:15 AM 60.8 °F - 59.0 °F 94% 30.07 in 10.0 mi SSW 3.5 mph - N/A   Clear
12:35 AM 59.0 °F - 59.0 °F 100% 30.07 in 10.0 mi WSW 3.5 mph - N/A   Clear
1:15 AM 62.6 °F - 57.2 °F 82% 30.07 in 10.0 mi Calm Calm - N/A   Clear
1:35 AM 60.8 °F - 59.0 °F 94% 30.07 in 10.0 mi West 5.8 mph - N/A   Clear
1:55 AM 64.4 °F - 60.8 °F 88% 30.07 in 10.0 mi West 8.1 mph - N/A   Clear
2:15 AM 62.6 °F - 60.8 °F 94% 30.07 in 10.0 mi WSW 3.5 mph - N/A   Clear
2:35 AM 62.6 °F - 60.8 °F 94% 30.07 in 10.0 mi Calm Calm - N/A Rain Light Rain
2:55 AM 62.6 °F - 59.0 °F 88% 30.07 in 10.0 mi Calm Calm - N/A   Clear
3:15 AM 59.0 °F - 59.0 °F 100% 30.07 in 10.0 mi Calm Calm - N/A   Clear
3:35 AM 57.2 °F - 57.2 °F 100% 30.08 in 10.0 mi North 4.6 mph - N/A   Clear
3:55 AM 59.0 °F - 59.0 °F 100% 30.09 in 10.0 mi North 5.8 mph - N/A   Clear
4:15 AM 59.0 °F - 59.0 °F 100% 30.09 in 10.0 mi North 4.6 mph - N/A   Partly Cloudy
4:35 AM 59.0 °F - 59.0 °F 100% 30.09 in 10.0 mi North 3.5 mph - N/A   Scattered Clouds
4:55 AM 59.0 °F - 59.0 °F 100% 30.09 in 10.0 mi NE 4.6 mph - N/A   Mostly Cloudy
5:15 AM 59.0 °F - 59.0 °F 100% 30.08 in 10.0 mi Calm Calm - N/A   Scattered Clouds
5:35 AM 57.2 °F - 57.2 °F 100% 30.09 in 10.0 mi Calm Calm - N/A   Partly Cloudy
5:55 AM 59.0 °F - 59.0 °F 100% 30.09 in 10.0 mi Calm Calm - N/A   Partly Cloudy
6:15 AM 57.2 °F - 57.2 °F 100% 30.09 in 10.0 mi NNE 4.6 mph - N/A   Clear
6:35 AM 59.0 °F - 59.0 °F 100% 30.09 in 10.0 mi NNE 4.6 mph - N/A   Clear
8:35 AM 66.2 °F - 62.6 °F 88% 30.11 in 10.0 mi ENE 5.8 mph - N/A   Overcast
8:55 AM 66.2 °F - 62.6 °F 88% 30.12 in 10.0 mi East 5.8 mph - N/A   Overcast
9:15 AM 68.0 °F - 62.6 °F 83% 30.11 in 10.0 mi East 4.6 mph - N/A   Mostly Cloudy
10:15 AM 73.4 °F - 60.8 °F 65% 30.12 in 9.0 mi East 5.8 mph - N/A   Partly Cloudy
10:35 AM 73.4 °F - 59.0 °F 61% 30.12 in 10.0 mi East 6.9 mph - N/A   Clear
10:55 AM 75.2 °F - 57.2 °F 53% 30.12 in 10.0 mi East 8.1 mph - N/A   Scattered Clouds
11:15 AM 75.2 °F - 51.8 °F 44% 30.11 in 10.0 mi SE 10.4 mph - N/A   Mostly Cloudy
11:35 AM 77.0 °F - 55.4 °F 47% 30.11 in 10.0 mi East 9.2 mph - N/A   Partly Cloudy
11:55 AM 77.0 °F - 57.2 °F 50% 30.11 in 10.0 mi ESE 10.4 mph - N/A   Clear
12:15 PM 77.0 °F - 57.2 °F 50% 30.11 in 10.0 mi SE 6.9 mph - N/A   Clear
12:35 PM 78.8 °F - 59.0 °F 51% 30.10 in 10.0 mi ESE 8.1 mph - N/A   Clear
12:55 PM 80.6 °F 80.8 °F 57.2 °F 45% 30.10 in 10.0 mi ESE 10.4 mph - N/A   Clear
1:15 PM 80.6 °F 80.8 °F 57.2 °F 45% 30.10 in 10.0 mi ENE 6.9 mph - N/A   Clear
1:35 PM 80.6 °F 81.1 °F 59.0 °F 48% 30.09 in 10.0 mi SSE 8.1 mph - N/A   Clear
1:55 PM 80.6 °F 80.8 °F 57.2 °F 45% 30.09 in 10.0 mi South 4.6 mph - N/A   Clear
2:15 PM 80.6 °F 80.8 °F 57.2 °F 45% 30.08 in 10.0 mi SE 8.1 mph - N/A   Partly Cloudy
2:35 PM 80.6 °F 80.8 °F 57.2 °F 45% 30.08 in 10.0 mi East 9.2 mph - N/A   Scattered Clouds
3:15 PM 80.6 °F 81.1 °F 59.0 °F 48% 30.07 in 10.0 mi SE 8.1 mph - N/A   Partly Cloudy
3:35 PM 80.6 °F 80.8 °F 57.2 °F 45% 30.07 in 10.0 mi ESE 9.2 mph - N/A   Mostly Cloudy
3:55 PM 82.4 °F 82.0 °F 57.2 °F 42% 30.07 in 10.0 mi SE 9.2 mph - N/A   Scattered Clouds
4:15 PM 80.6 °F 80.8 °F 57.2 °F 45% 30.07 in 10.0 mi SE 6.9 mph - N/A   Clear
4:35 PM 82.4 °F 82.0 °F 57.2 °F 42% 30.06 in 10.0 mi East 9.2 mph - N/A   Clear
4:55 PM 82.4 °F 82.0 °F 57.2 °F 42% 30.06 in 10.0 mi ESE 10.4 mph - N/A   Clear
5:15 PM 82.4 °F 82.0 °F 57.2 °F 42% 30.06 in 10.0 mi ESE 9.2 mph - N/A   Scattered Clouds
5:35 PM 80.6 °F 80.8 °F 57.2 °F 45% 30.06 in 10.0 mi East 10.4 mph - N/A   Partly Cloudy
5:55 PM 80.6 °F 80.8 °F 57.2 °F 45% 30.06 in 10.0 mi East 10.4 mph - N/A   Clear
6:15 PM 80.6 °F 81.1 °F 59.0 °F 48% 30.06 in 10.0 mi ESE 9.2 mph - N/A   Clear
6:35 PM 80.6 °F 81.1 °F 59.0 °F 48% 30.06 in 10.0 mi East 9.2 mph - N/A   Partly Cloudy
6:55 PM 80.6 °F 81.1 °F 59.0 °F 48% 30.05 in 10.0 mi East 8.1 mph - N/A   Clear
7:15 PM 78.8 °F - 59.0 °F 51% 30.06 in 10.0 mi East 6.9 mph - N/A   Mostly Cloudy
7:55 PM 75.2 °F - 59.0 °F 57% 30.05 in 10.0 mi East 9.2 mph - N/A   Scattered Clouds
8:35 PM 73.4 °F - 59.0 °F 61% 30.05 in 10.0 mi East 6.9 mph - N/A   Clear
8:55 PM 71.6 °F - 59.0 °F 64% 30.05 in 10.0 mi East 8.1 mph - N/A   Clear
9:55 PM 71.6 °F - 59.0 °F 64% 30.06 in 10.0 mi East 6.9 mph - N/A   Clear
11:15 PM 68.0 °F - 57.2 °F 68% 30.06 in 10.0 mi East 6.9 mph - N/A   Clear
11:35 PM 68.0 °F - 57.2 °F 68% 30.07 in 10.0 mi ESE 8.1 mph - N/A Rain Light Rain
11:55 PM 68.0 °F - 57.2 °F 68% 30.07 in 10.0 mi ESE 8.1 mph - N/A   Clear